カタログに戻る

KYOKKO 1 DEB

運用中UNKNOWN
NORAD 12330·DEBRIS·🇯🇵 Japan

打ち上げ Feb 4, 1978 から Uchinoura Space Center

Loading…

次のパス (今後24時間)

TLE

最新Source: Space-Track

元期: Sep 14, 2026, 13:30 UTC

1 12330U 78014D   26257.56300118  .00000014  00000-0  62404-4 0  9990
2 12330  65.3630  93.4718 1898495 346.6237   9.0343 10.78500967676215

AllMySatでKYOKKO 1 DEBをリアルタイム追跡

Download on the App Store